Regional Weather Roundup
Issued by NWS Kansas City/Pleasant Hill, MO

Home | Current Version | Previous Version | Text Only | Print | Product List | Glossary On
Versions: 1 2 3 4 5 6 7 8 9 10 11 12 13 14 15 16 17 18 19 20 21 22 23 24 25 26 27 28 29 30 31 32 33 34 35 36 37 38 39 40 41 42 43 44 45 46 47 48 49 50
000
ASUS43 KEAX 231904
RWREAX

WEATHER ROUNDUP FOR EASTERN KANSAS AND NORTHWEST MISSOURI
NATIONAL WEATHER SERVICE KANSAS CITY/PLEASANT HILL MO
200 PM CDT TUE SEP 23 2014

KSZ040-057-103>105-MOZ028-029-037-043-232000-
...KANSAS CITY METROPOLITAN AREA...

CITY           SKY/WX    TMP DP  RH WIND       PRES   REMARKS
K.C. INTL      PTSUNNY   71  54  54 S16       30.20F
K.C. DOWNTOWN  PTSUNNY   75  54  47 S14       30.20F
LEES SUMMIT    PTSUNNY   71  50  47 S8G18     30.22F
OLATHE - IXD   PTSUNNY   72  56  57 SE10      30.21F
OLATHE - OJC   PTSUNNY   72  54  53 S12       30.21S
LAWRENCE       MOSUNNY   74  54  49 S16       30.19F

$$

MOZ001>008-011>017-020>025-030>033-038>040-044>046-053-054-232000-
...NORTHERN AND CENTRAL MISSOURI...

CITY           SKY/WX    TMP DP  RH WIND       PRES   REMARKS
ST. JOSEPH     CLOUDY    74  54  49 S13G22    30.18F
MOSBY          MOCLDY    72  52  49 SE10      30.21F
WHITEMAN AFB   NOT AVBL
CLINTON        PTSUNNY   72  52  49 SE8       30.24F
SEDALIA        PTSUNNY   73  51  46 SE9       30.24F
WARSAW         NOT AVBL
MARSHALL       PTSUNNY   75  52  43 S9G18     30.25F
CHILLICOTHE      N/A     72  54  53 SE10      30.23F
MOBERLY        PTSUNNY   75  45  33 MISG      30.27F
KIRKSVILLE     PTSUNNY   70  52  52 S8        30.27F

$$

MOZ041-047>049-056>058-063>065-088>090-097-232000-
...EASTERN AND SOUTHERN MISSOURI...

CITY           SKY/WX    TMP DP  RH WIND       PRES   REMARKS
ST. LOUIS INTL MOSUNNY   73  48  41 NE5       30.29F
SPIRIT OF STL  MOSUNNY   72  49  44 CALM      30.28F
COLUMBIA       MOSUNNY   73  49  42 SE10G17   30.27F
JEFFERSON CITY MOSUNNY   75  44  33 SE7       30.26F
MEXICO         PTSUNNY   75  52  43 SE7       30.28F
ROLLA          SUNNY     73  44  35 SE10      30.26F
LEBANON        MOSUNNY   75  43  31 SE6       30.26F
OSAGE BEACH    MOSUNNY   73  45  35 SE8       30.26F
SPRINGFIELD    SUNNY     71  44  37 SE9       30.24F
BRANSON        PTSUNNY   73  46  38 SE6       30.27F
NEVADA         MOSUNNY   75  52  43 SE12      30.22F
JOPLIN         MOSUNNY   74  52  46 SE13      30.22F
WEST PLAINS    SUNNY     71  45  39 CALM      30.28F

$$

IAZ060-094-KSZ022-034>040-054-083-096-NEZ052-066-093-232000-
...KANSAS...SOUTHEAST NEBRASKA AND IOWA...

CITY           SKY/WX    TMP DP  RH WIND       PRES   REMARKS
TOPEKA         PTSUNNY   75  53  46 S15       30.17F
MANHATTAN      CLOUDY    71  57  61 SE10G17   30.12F
EMPORIA        MOSUNNY   74  56  53 S17G28    30.16F
CHANUTE        MOSUNNY   74  55  51 S16G23    30.20F
WICHITA        PTSUNNY   82  51  34 S20G28    30.11F
OMAHA          PTSUNNY   68  57  68 SE15      30.14F
LINCOLN        CLOUDY    70  56  61 S22G28    30.12F
FALLS CITY     PTSUNNY   71  55  56 S14       30.16F
LAMONI         CLOUDY    70  53  54 S12G18    30.21F
DES MOINES     CLOUDY    70  51  51 S13       30.22F

$$



USA.gov is the U.S. government's official web portal to all federal, state and local government web resources and services.